Location: El Chorro
(10.0985°N, 67.3542°W)
Time: 17:56:32
(UTC+00:00)

ARIANE 5 R/B - Pass Details

Date: 15 November 2025
Orbit: 294 x 29734 km, 2.6° (Epoch: 06 December)

Event Time Altitude Azimuth Distance (km) Brightness Sun altitude
Rises 23:06:06 0° 256° (WSW) 3,536 7.3 -15.4°
Reaches altitude 10° 23:10:03 10° 235° (SW) 1,563 4.8 -16.3°
Maximum altitude 23:12:02 17° 189° (S) 921 2.8 -16.8°
Enters shadow 23:12:50 14° 160° (SSE) 951 2.5 -17.0°
